Location: Boitzum
(52.1496°N, 9.6943°E)
Time: 09:50:58
(UTC+00:00)

Cosmos 2084 Rocket - Pass Details

Date: 13 January 2026
Orbit: 541 x 571 km, 62.8° (Epoch: 19 February)

Event Time Altitude Azimuth Distance (km) Brightness Sun altitude
Exits shadow 06:04:10 14° 319° (NW) 1,629 5.2 -11.8°
Maximum altitude 06:07:44 61° 38° (NE) 652 3.8 -11.2°
Drops below altitude 10° 06:11:55 10° 119° (ESE) 1,874 7.6 -10.6°
Sets 06:14:11 0° 123° (ESE) 2,770 8.8 -10.3°
